RH
33 36 36 35 39 42 45 44 46 48 59 57 58 61 65 71 71 70 69 69 69 68 69 69 67 66 67
35 35 42 45 47 49 49 48 51 50 57 59 60 62 66 69 67 68 70 69 66 69 70 68 68 69 69
43 50 49 51 54 53 52 54 55 55 58 58 64 71 66 73 65 69 70 70 68 70 70 70 69 70 68
53 55 56 54 58 58 57 56 58 59 58 60 65 64 65 72 72 66 74 74 69 67 70 72 73 72 69
60 61 60 63 60 62 66 69 69 66 63 66 69 62 59 62 65 62 77 71 70 70 71 73 71 72 72
61 64 67 65 71 74 80 84 89 73 81 71 77 75 71 70 68 76 76 74 74 74 72 71 73 74 73
66 69 72 75 76 77 78 84 92 82 80 85 68 64 66 74 65 71 79 84 82 78 74 73 74 77 72
68 67 66 74 84 79 76 83 77 68 79 81 66 78 69 61 55 64 86 79 76 76 78 79 78 76 76
69 73 79 78 74 71 72 83 92 88 85 89 81 84 74 65 58 64 77 79 81 88 84 81 80 79 82
64 64 70 66 70 75 85 90 99 83 84 91 82 82 91 68 66 73 77 79 90 93 94 91 87 84 85
72 71 73 76 84 86 84 88 92 92 88 94 94 98 98 97 88 86 79 75 78 95 95 82 90 88 89
70 78 81 81 79 79 81 82 87 88 85 83 97 100 98 93 91 81 87 82 84 87 83 81 81 78 93
81 81 75 70 75 76 75 74 72 73 72 72 76 82 93 98 97 95 94 92 84 82 90 84 98 96 96
73 78 85 84 80 75 73 73 83 81 68 71 71 74 84 88 100 99 100 99 92 90 98 100 96 88 91
84 85 78 75 74 71 76 88 95 91 83 76 67 76 79 78 100 97 94 97 87 85 89 93 97 92 87
85 79 74 81 80 80 88 94 92 87 94 78 83 90 89 73 75 77 83 84 86 90 92 100 95 86 88
86 94 95 86 85 87 83 98 86 87 79 89 92 94 95 92 77 80 88 95 98 95 92 98 99 94 93
Wind_Speed
8 7 4 5 6 8 6 7 6 7 9 11 12 12 12 13 13 16 16 16 17 17 17 16 19 21 21
7 5 3 3 5 6 6 6 7 11 10 11 12 12 13 14 17 18 18 18 19 17 20 20 20 22 22
4 4 2 2 4 7 7 7 9 11 11 13 12 12 17 15 20 20 20 18 17 18 19 20 22 22 23
5 4 2 3 5 6 6 11 13 13 12 11 12 15 20 19 21 20 20 18 19 20 20 20 20 22 24
5 2 2 1 5 6 9 10 15 12 13 10 18 22 20 20 21 21 20 22 22 21 22 19 21 23 26
3 2 3 5 5 7 9 12 6 8 19 24 20 21 21 21 23 22 22 21 23 22 22 20 23 26 29
4 4 4 5 8 11 12 12 14 20 19 17 21 24 22 20 25 26 23 19 19 20 21 24 27 27 31
4 4 5 6 8 11 13 12 14 18 15 11 20 15 26 28 19 14 14 17 22 25 25 25 27 29 31
3 3 5 7 9 10 8 6 6 13 14 8 11 25 25 19 14 12 18 25 27 26 24 25 27 29 31
7 7 7 8 7 5 3 6 5 8 3 15 17 17 7 14 20 27 25 30 24 27 29 25 24 29 32
8 6 5 4 3 5 10 9 8 10 15 16 14 20 12 16 19 25 29 29 33 28 27 23 25 26 33
7 4 3 6 10 10 10 10 10 13 17 18 18 20 18 20 22 24 29 29 29 32 26 29 32 32 29
5 5 7 9 10 10 11 13 13 16 16 15 20 22 20 21 25 27 27 28 27 24 32 34 35 34 37
6 5 7 9 10 11 14 17 20 22 17 18 19 21 23 24 25 26 24 20 30 31 30 34 34 34 33
7 6 7 10 13 13 15 17 17 21 23 21 23 21 23 24 23 24 27 28 29 33 33 33 32 31 33
9 8 10 11 13 15 17 17 19 23 20 24 24 25 24 24 16 21 23 28 32 31 31 26 33 35 33
8 7 7 12 13 17 18 15 19 21 25 22 20 23 10 8 20 16 26 29 30 31 28 26 30 38 36
Wind_Direction
148 173 225 285 305 322 338 333 348 340 335 332 325 322 323 326 326 324 326 323 319 317 315 310 313 312 311
167 192 242 281 308 312 318 313 321 330 334 330 319 315 323 318 322 324 320 318 314 315 315 313 315 314 313
171 220 248 287 301 306 314 308 327 330 317 324 321 319 323 317 321 318 315 315 309 305 311 314 315 316 315
205 213 239 319 306 319 321 321 320 322 317 317 309 310 315 311 315 313 312 309 303 304 308 311 309 313 312
199 230 298 280 319 321 314 322 316 327 330 328 315 318 319 313 314 314 311 308 304 302 308 301 304 310 312
202 235 274 301 314 324 328 331 324 330 329 318 324 317 316 311 310 303 303 305 303 300 303 296 304 304 310
204 239 255 278 301 308 316 316 305 312 321 315 317 314 318 314 308 304 305 311 308 302 302 305 304 304 306
252 285 293 303 310 311 306 299 304 309 323 296 319 316 319 315 322 323 324 324 316 309 305 302 303 305 305
233 282 282 293 303 292 308 322 320 310 328 342 315 320 320 315 336 330 314 316 313 310 308 305 305 305 303
235 267 289 294 287 297 316 344 322 308 290 339 317 329 306 313 316 313 311 319 315 308 308 308 306 308 307
282 284 279 254 267 332 333 332 318 294 299 315 300 304 283 286 310 308 311 312 318 314 313 311 311 309 307
279 260 246 295 305 315 323 320 309 298 306 314 302 304 296 313 303 309 310 314 311 309 310 313 315 316 306
242 250 298 310 316 316 318 323 316 316 321 321 317 312 305 297 298 302 304 305 307 310 311 317 313 312 307
266 275 289 307 313 324 324 324 325 322 323 325 320 321 319 311 297 296 297 293 302 309 304 305 306 306 303
254 266 293 307 317 322 318 322 321 319 316 318 322 323 323 320 296 293 298 300 311 311 312 308 306 307 307
246 277 297 301 313 319 315 318 322 323 319 316 321 322 323 320 305 303 309 305 304 306 309 299 304 308 306
260 280 297 302 311 317 316 318 324 316 312 317 320 318 306 299 307 315 308 305 303 305 306 299 297 302 307